QPF
0.00 0.00 0.00 0.01 0.06 0.09 0.02 0.00 0.00 0.00 0.00 0.00 0.00 0.00 0.00 0.00 0.02 0.07 0.03 0.00 0.00 0.00 0.00 0.00 0.00 0.00 0.01 0.01 0.01 0.01 0.01 0.01 0.01 0.01 0.01 0.01 0.02 0.01 0.01 0.02 0.02 0.02 0.02 0.02 0.04 0.04 0.04 0.05 0.07
0.00 0.00 0.02 0.03 0.07 0.04 0.00 0.00 0.00 0.00 0.00 0.00 0.00 0.00 0.00 0.00 0.00 0.00 0.01 0.00 0.00 0.00 0.00 0.00 0.00 0.00 0.01 0.01 0.01 0.01 0.01 0.01 0.01 0.01 0.01 0.02 0.02 0.02 0.02 0.02 0.02 0.01 0.01 0.02 0.05 0.03 0.04 0.04 0.05
0.00 0.00 0.02 0.03 0.03 0.01 0.00 0.00 0.00 0.00 0.00 0.00 0.00 0.00 0.00 0.00 0.00 0.01 0.01 0.00 0.00 0.00 0.00 0.00 0.00 0.00 0.00 0.01 0.01 0.01 0.01 0.01 0.01 0.01 0.01 0.01 0.01 0.02 0.02 0.01 0.02 0.01 0.02 0.03 0.03 0.03 0.03 0.03 0.03
0.00 0.01 0.03 0.03 0.01 0.00 0.00 0.00 0.00 0.00 0.00 0.00 0.01 0.01 0.00 0.00 0.00 0.00 0.00 0.00 0.00 0.00 0.00 0.00 0.00 0.00 0.00 0.00 0.01 0.02 0.01 0.01 0.01 0.01 0.01 0.01 0.01 0.02 0.02 0.01 0.02 0.02 0.02 0.03 0.04 0.05 0.03 0.02 0.02
0.01 0.03 0.06 0.03 0.01 0.00 0.00 0.00 0.00 0.00 0.00 0.00 0.01 0.02 0.01 0.00 0.00 0.00 0.01 0.03 0.01 0.00 0.00 0.00 0.00 0.00 0.00 0.01 0.01 0.01 0.01 0.01 0.01 0.01 0.01 0.02 0.02 0.02 0.01 0.02 0.02 0.02 0.02 0.03 0.03 0.04 0.04 0.03 0.02
0.00 0.02 0.02 0.02 0.00 0.00 0.00 0.00 0.00 0.01 0.01 0.00 0.00 0.01 0.01 0.00 0.00 0.00 0.01 0.06 0.02 0.01 0.01 0.01 0.01 0.02 0.01 0.01 0.01 0.01 0.01 0.01 0.01 0.01 0.02 0.02 0.02 0.02 0.02 0.02 0.02 0.01 0.02 0.03 0.02 0.03 0.02 0.02 0.03
0.00 0.00 0.01 0.01 0.00 0.00 0.00 0.00 0.00 0.01 0.01 0.00 0.00 0.02 0.03 0.01 0.00 0.00 0.00 0.03 0.03 0.02 0.03 0.02 0.01 0.02 0.01 0.01 0.01 0.01 0.01 0.01 0.02 0.01 0.02 0.02 0.01 0.02 0.02 0.01 0.01 0.01 0.02 0.03 0.02 0.01 0.01 0.02 0.02
0.00 0.00 0.01 0.00 0.00 0.00 0.00 0.00 0.00 0.00 0.00 0.00 0.00 0.01 0.03 0.03 0.01 0.01 0.02 0.04 0.05 0.03 0.05 0.04 0.01 0.03 0.03 0.02 0.02 0.02 0.01 0.02 0.02 0.02 0.01 0.01 0.01 0.02 0.01 0.01 0.01 0.02 0.03 0.03 0.02 0.01 0.00 0.01 0.02
0.00 0.00 0.00 0.00 0.00 0.00 0.00 0.00 0.00 0.00 0.01 0.01 0.01 0.01 0.02 0.03 0.02 0.02 0.04 0.08 0.06 0.07 0.09 0.09 0.06 0.05 0.06 0.04 0.02 0.02 0.02 0.01 0.02 0.02 0.01 0.03 0.09 0.06 0.04 0.02 0.01 0.02 0.04 0.03 0.01 0.01 0.01 0.01 0.01
0.00 0.00 0.00 0.00 0.00 0.00 0.00 0.00 0.00 0.00 0.03 0.04 0.02 0.02 0.03 0.04 0.03 0.04 0.05 0.08 0.05 0.06 0.09 0.11 0.10 0.07 0.06 0.06 0.04 0.05 0.04 0.02 0.05 0.06 0.04 0.12 0.16 0.14 0.07 0.03 0.01 0.01 0.03 0.03 0.02 0.02 0.02 0.04 0.03
0.00 0.00 0.00 0.00 0.00 0.00 0.00 0.00 0.00 0.01 0.01 0.01 0.01 0.01 0.01 0.02 0.03 0.04 0.05 0.06 0.05 0.05 0.05 0.08 0.13 0.10 0.08 0.10 0.07 0.05 0.07 0.07 0.09 0.09 0.08 0.12 0.11 0.07 0.05 0.04 0.03 0.04 0.05 0.08 0.03 0.03 0.07 0.10 0.10
0.00 0.00 0.00 0.00 0.00 0.00 0.00 0.00 0.00 0.00 0.00 0.00 0.00 0.00 0.01 0.02 0.03 0.05 0.05 0.05 0.05 0.08 0.08 0.07 0.11 0.13 0.13 0.11 0.08 0.06 0.05 0.04 0.07 0.08 0.07 0.07 0.10 0.09 0.08 0.08 0.07 0.09 0.12 0.15 0.10 0.11 0.11 0.11 0.07
0.00 0.00 0.00 0.00 0.00 0.00 0.00 0.00 0.00 0.00 0.00 0.00 0.00 0.00 0.00 0.02 0.03 0.05 0.06 0.06 0.10 0.11 0.12 0.08 0.10 0.15 0.16 0.15 0.11 0.08 0.07 0.04 0.04 0.06 0.06 0.05 0.06 0.07 0.08 0.08 0.08 0.09 0.09 0.10 0.12 0.11 0.10 0.09 0.07
0.00 0.00 0.00 0.00 0.00 0.00 0.00 0.00 0.00 0.00 0.00 0.00 0.00 0.00 0.00 0.00 0.01 0.03 0.05 0.06 0.10 0.09 0.11 0.10 0.10 0.14 0.15 0.13 0.11 0.11 0.08 0.05 0.04 0.03 0.03 0.03 0.05 0.07 0.08 0.07 0.08 0.09 0.09 0.09 0.08 0.07 0.08 0.08 0.07
0.00 0.00 0.00 0.00 0.00 0.00 0.00 0.00 0.00 0.00 0.00 0.00 0.00 0.00 0.00 0.00 0.00 0.02 0.03 0.05 0.07 0.08 0.09 0.10 0.09 0.12 0.15 0.13 0.10 0.08 0.06 0.03 0.04 0.03 0.03 0.03 0.05 0.07 0.07 0.08 0.07 0.06 0.06 0.05 0.05 0.05 0.07 0.07 0.06
0.00 0.00 0.00 0.00 0.00 0.00 0.00 0.00 0.00 0.00 0.00 0.00 0.01 0.00 0.00 0.00 0.01 0.02 0.03 0.06 0.07 0.07 0.08 0.09 0.08 0.08 0.13 0.15 0.13 0.09 0.07 0.05 0.04 0.04 0.04 0.03 0.05 0.05 0.05 0.07 0.06 0.05 0.03 0.02 0.05 0.06 0.07 0.08 0.08
0.00 0.00 0.00 0.00 0.00 0.00 0.00 0.00 0.00 0.00 0.00 0.01 0.03 0.01 0.00 0.01 0.01 0.01 0.03 0.06 0.06 0.06 0.06 0.09 0.11 0.11 0.14 0.17 0.15 0.11 0.09 0.07 0.05 0.03 0.05 0.05 0.04 0.03 0.04 0.07 0.09 0.05 0.03 0.02 0.03 0.07 0.07 0.08 0.09
0.00 0.00 0.00 0.00 0.00 0.00 0.01 0.01 0.00 0.00 0.00 0.00 0.01 0.01 0.00 0.01 0.01 0.02 0.04 0.06 0.05 0.05 0.04 0.08 0.10 0.11 0.14 0.18 0.17 0.16 0.12 0.07 0.05 0.04 0.06 0.07 0.06 0.04 0.04 0.04 0.07 0.04 0.04 0.05 0.06 0.09 0.09 0.09 0.08
0.00 0.00 0.00 0.00 0.00 0.00 0.00 0.00 0.00 0.00 0.00 0.00 0.00 0.01 0.01 0.01 0.02 0.03 0.04 0.05 0.04 0.04 0.04 0.06 0.09 0.10 0.12 0.14 0.14 0.14 0.12 0.09 0.05 0.03 0.04 0.04 0.04 0.05 0.05 0.06 0.09 0.04 0.04 0.04 0.03 0.07 0.08 0.08 0.07
0.00 0.00 0.00 0.00 0.00 0.00 0.00 0.02 0.01 0.00 0.00 0.00 0.00 0.00 0.00 0.00 0.02 0.03 0.02 0.02 0.03 0.04 0.05 0.07 0.10 0.11 0.09 0.12 0.14 0.17 0.14 0.08 0.06 0.05 0.06 0.05 0.04 0.04 0.03 0.05 0.05 0.04 0.04 0.03 0.03 0.06 0.08 0.09 0.07
0.00 0.00 0.00 0.00 0.00 0.00 0.00 0.01 0.02 0.01 0.00 0.00 0.00 0.00 0.00 0.00 0.01 0.02 0.02 0.02 0.01 0.03 0.05 0.07 0.10 0.13 0.12 0.15 0.16 0.16 0.16 0.11 0.09 0.07 0.08 0.07 0.06 0.05 0.05 0.04 0.05 0.07 0.03 0.04 0.05 0.05 0.06 0.09 0.09
0.00 0.00 0.00 0.00 0.00 0.00 0.00 0.00 0.01 0.02 0.02 0.00 0.00 0.00 0.00 0.02 0.06 0.04 0.06 0.05 0.02 0.05 0.07 0.09 0.15 0.16 0.16 0.20 0.16 0.12 0.11 0.10 0.09 0.09 0.08 0.09 0.08 0.06 0.06 0.06 0.08 0.08 0.06 0.08 0.04 0.05 0.06 0.07 0.08
0.00 0.00 0.00 0.00 0.00 0.00 0.00 0.00 0.00 0.00 0.01 0.01 0.00 0.00 0.00 0.01 0.02 0.02 0.07 0.10 0.03 0.04 0.12 0.19 0.17 0.18 0.20 0.16 0.12 0.10 0.10 0.12 0.10 0.09 0.11 0.10 0.09 0.07 0.06 0.07 0.09 0.08 0.06 0.08 0.06 0.09 0.07 0.07 0.06
0.00 0.00 0.00 0.00 0.00 0.00 0.00 0.00 0.00 0.00 0.00 0.00 0.00 0.00 0.00 0.00 0.00 0.00 0.01 0.01 0.01 0.03 0.08 0.11 0.09 0.09 0.11 0.12 0.12 0.10 0.11 0.14 0.12 0.10 0.09 0.08 0.08 0.08 0.07 0.07 0.08 0.07 0.07 0.08 0.07 0.07 0.07 0.08 0.09
0.00 0.00 0.00 0.00 0.00 0.00 0.00 0.00 0.00 0.00 0.00 0.00 0.00 0.00 0.00 0.00 0.00 0.00 0.01 0.01 0.01 0.02 0.03 0.05 0.07 0.09 0.10 0.12 0.11 0.09 0.09 0.12 0.11 0.10 0.11 0.10 0.08 0.07 0.07 0.07 0.08 0.07 0.08 0.07 0.08 0.07 0.08 0.08 0.08
0.00 0.00 0.00 0.00 0.00 0.01 0.00 0.00 0.00 0.00 0.00 0.00 0.00 0.00 0.00 0.00 0.00 0.02 0.01 0.01 0.01 0.02 0.03 0.05 0.08 0.10 0.09 0.09 0.10 0.10 0.07 0.07 0.09 0.11 0.10 0.09 0.08 0.07 0.07 0.08 0.07 0.07 0.07 0.06 0.09 0.06 0.05 0.08 0.07
0.00 0.00 0.00 0.00 0.00 0.01 0.01 0.00 0.00 0.01 0.00 0.00 0.00 0.00 0.00 0.00 0.02 0.03 0.06 0.05 0.01 0.01 0.02 0.03 0.05 0.06 0.09 0.11 0.12 0.10 0.08 0.08 0.11 0.13 0.12 0.11 0.11 0.10 0.09 0.08 0.07 0.07 0.06 0.06 0.08 0.07 0.07 0.09 0.08
0.00 0.00 0.00 0.00 0.00 0.00 0.00 0.00 0.01 0.01 0.01 0.00 0.00 0.00 0.00 0.03 0.03 0.01 0.03 0.08 0.03 0.01 0.01 0.02 0.03 0.04 0.08 0.11 0.10 0.06 0.08 0.08 0.11 0.12 0.11 0.10 0.10 0.10 0.10 0.09 0.08 0.07 0.07 0.07 0.07 0.08 0.09 0.09 0.08
0.00 0.00 0.00 0.00 0.00 0.00 0.01 0.01 0.01 0.02 0.01 0.01 0.00 0.00 0.00 0.01 0.01 0.00 0.00 0.01 0.01 0.00 0.01 0.02 0.03 0.05 0.07 0.08 0.08 0.08 0.07 0.07 0.08 0.10 0.12 0.13 0.13 0.11 0.10 0.10 0.11 0.10 0.09 0.09 0.09 0.10 0.10 0.10 0.10
0.00 0.00 0.00 0.00 0.00 0.00 0.00 0.00 0.01 0.01 0.01 0.00 0.00 0.00 0.00 0.00 0.00 0.00 0.00 0.00 0.00 0.00 0.01 0.01 0.02 0.03 0.05 0.07 0.08 0.09 0.09 0.09 0.09 0.09 0.12 0.15 0.15 0.14 0.13 0.12 0.12 0.11 0.10 0.11 0.11 0.10 0.10 0.10 0.11
MSLP
1006.60 1007.34 1008.16 1008.90 1009.41 1009.62 1009.51 1009.14 1008.62 1008.09 1007.67 1007.43 1007.40 1007.54 1007.78 1008.04 1008.25 1008.38 1008.46 1008.53 1008.65 1008.90 1009.29 1009.84 1010.48 1011.14 1011.74 1012.23 1012.58 1012.80 1012.93 1013.04 1013.19 1013.41 1013.72 1014.07 1014.44 1014.77 1015.02 1015.18 1015.25 1015.26 1015.27 1015.31 1015.40 1015.56 1015.77 1016.01 1016.26
1007.05 1007.89 1008.72 1009.38 1009.75 1009.78 1009.48 1008.92 1008.26 1007.62 1007.14 1006.86 1006.81 1006.94 1007.17 1007.42 1007.63 1007.79 1007.92 1008.08 1008.33 1008.72 1009.27 1009.94 1010.69 1011.42 1012.05 1012.54 1012.86 1013.05 1013.16 1013.26 1013.41 1013.64 1013.95 1014.31 1014.67 1014.98 1015.19 1015.31 1015.36 1015.36 1015.37 1015.42 1015.55 1015.74 1015.98 1016.24 1016.48
1007.61 1008.51 1009.30 1009.84 1010.04 1009.86 1009.36 1008.64 1007.85 1007.15 1006.63 1006.35 1006.31 1006.44 1006.67 1006.92 1007.13 1007.31 1007.48 1007.71 1008.06 1008.56 1009.23 1010.02 1010.86 1011.66 1012.33 1012.83 1013.16 1013.35 1013.45 1013.54 1013.69 1013.91 1014.21 1014.54 1014.86 1015.13 1015.31 1015.41 1015.44 1015.46 1015.50 1015.60 1015.78 1016.01 1016.28 1016.54 1016.77
1008.17 1009.07 1009.78 1010.18 1010.19 1009.82 1009.15 1008.31 1007.45 1006.72 1006.22 1005.97 1005.97 1006.13 1006.37 1006.61 1006.82 1007.00 1007.19 1007.45 1007.87 1008.46 1009.22 1010.09 1011.01 1011.86 1012.57 1013.10 1013.45 1013.64 1013.75 1013.85 1013.99 1014.20 1014.47 1014.76 1015.04 1015.26 1015.41 1015.50 1015.55 1015.61 1015.71 1015.88 1016.12 1016.39 1016.67 1016.92 1017.11
1008.61 1009.47 1010.07 1010.31 1010.15 1009.62 1008.83 1007.93 1007.06 1006.37 1005.93 1005.77 1005.83 1006.03 1006.28 1006.52 1006.71 1006.87 1007.06 1007.34 1007.79 1008.42 1009.24 1010.17 1011.13 1012.02 1012.77 1013.32 1013.69 1013.90 1014.03 1014.14 1014.28 1014.48 1014.72 1014.97 1015.21 1015.39 1015.53 1015.62 1015.71 1015.83 1016.01 1016.25 1016.55 1016.86 1017.14 1017.35 1017.48
1008.85 1009.61 1010.07 1010.15 1009.85 1009.22 1008.38 1007.49 1006.68 1006.10 1005.78 1005.72 1005.86 1006.12 1006.39 1006.62 1006.79 1006.92 1007.09 1007.37 1007.82 1008.47 1009.31 1010.26 1011.23 1012.14 1012.90 1013.47 1013.85 1014.09 1014.25 1014.38 1014.53 1014.72 1014.94 1015.17 1015.37 1015.54 1015.67 1015.79 1015.92 1016.11 1016.36 1016.67 1017.01 1017.34 1017.60 1017.76 1017.82
1008.84 1009.44 1009.74 1009.68 1009.27 1008.60 1007.78 1006.97 1006.30 1005.87 1005.71 1005.78 1006.03 1006.34 1006.63 1006.85 1007.00 1007.11 1007.25 1007.51 1007.95 1008.59 1009.41 1010.35 1011.31 1012.20 1012.94 1013.51 1013.91 1014.18 1014.36 1014.52 1014.70 1014.90 1015.12 1015.35 1015.55 1015.71 1015.85 1016.00 1016.17 1016.41 1016.71 1017.06 1017.42 1017.74 1017.97 1018.08 1018.07
1008.58 1009.00 1009.12 1008.93 1008.46 1007.79 1007.06 1006.39 1005.90 1005.66 1005.67 1005.89 1006.23 1006.59 1006.91 1007.13 1007.26 1007.35 1007.47 1007.71 1008.13 1008.74 1009.53 1010.42 1011.33 1012.18 1012.89 1013.45 1013.85 1014.13 1014.35 1014.55 1014.77 1015.01 1015.26 1015.50 1015.72 1015.90 1016.06 1016.22 1016.42 1016.68 1017.00 1017.35 1017.70 1018.00 1018.19 1018.25 1018.19
1008.16 1008.38 1008.33 1008.03 1007.53 1006.90 1006.28 1005.78 1005.48 1005.43 1005.61 1005.96 1006.38 1006.80 1007.14 1007.36 1007.48 1007.57 1007.68 1007.92 1008.32 1008.90 1009.63 1010.46 1011.31 1012.09 1012.74 1013.26 1013.65 1013.96 1014.21 1014.46 1014.74 1015.04 1015.34 1015.63 1015.88 1016.09 1016.26 1016.44 1016.64 1016.89 1017.19 1017.52 1017.83 1018.08 1018.23 1018.26 1018.18
1007.70 1007.72 1007.52 1007.12 1006.60 1006.04 1005.55 1005.21 1005.08 1005.20 1005.51 1005.95 1006.44 1006.89 1007.24 1007.48 1007.61 1007.71 1007.84 1008.08 1008.47 1009.02 1009.70 1010.45 1011.21 1011.91 1012.50 1012.97 1013.35 1013.66 1013.95 1014.26 1014.61 1014.98 1015.36 1015.71 1016.01 1016.25 1016.45 1016.62 1016.81 1017.02 1017.28 1017.55 1017.80 1018.01 1018.12 1018.14 1018.06
1007.31 1007.16 1006.83 1006.37 1005.84 1005.34 1004.95 1004.74 1004.75 1004.97 1005.36 1005.86 1006.37 1006.83 1007.20 1007.45 1007.61 1007.74 1007.91 1008.17 1008.56 1009.09 1009.72 1010.40 1011.07 1011.68 1012.19 1012.61 1012.97 1013.28 1013.61 1013.98 1014.39 1014.84 1015.30 1015.72 1016.08 1016.37 1016.59 1016.76 1016.92 1017.08 1017.27 1017.47 1017.67 1017.82 1017.92 1017.94 1017.91
1007.11 1006.82 1006.39 1005.88 1005.36 1004.90 1004.58 1004.45 1004.52 1004.78 1005.19 1005.68 1006.18 1006.63 1007.00 1007.27 1007.48 1007.66 1007.89 1008.19 1008.60 1009.11 1009.69 1010.31 1010.90 1011.42 1011.87 1012.24 1012.57 1012.88 1013.24 1013.65 1014.12 1014.64 1015.17 1015.66 1016.09 1016.42 1016.67 1016.84 1016.97 1017.09 1017.21 1017.35 1017.48 1017.61 1017.70 1017.75 1017.77
1007.12 1006.75 1006.26 1005.72 1005.20 1004.77 1004.47 1004.36 1004.42 1004.66 1005.02 1005.45 1005.90 1006.32 1006.68 1006.98 1007.24 1007.50 1007.79 1008.15 1008.59 1009.10 1009.65 1010.21 1010.74 1011.20 1011.59 1011.92 1012.22 1012.53 1012.89 1013.33 1013.84 1014.40 1014.98 1015.53 1016.01 1016.39 1016.67 1016.85 1016.98 1017.06 1017.14 1017.23 1017.32 1017.43 1017.53 1017.62 1017.71
1007.34 1006.92 1006.41 1005.86 1005.35 1004.92 1004.62 1004.47 1004.48 1004.62 1004.88 1005.21 1005.58 1005.96 1006.31 1006.65 1006.98 1007.31 1007.68 1008.10 1008.58 1009.09 1009.63 1010.15 1010.63 1011.05 1011.40 1011.71 1011.99 1012.29 1012.65 1013.08 1013.58 1014.15 1014.75 1015.32 1015.84 1016.26 1016.58 1016.80 1016.94 1017.02 1017.09 1017.15 1017.23 1017.34 1017.46 1017.59 1017.74
1007.66 1007.24 1006.74 1006.23 1005.73 1005.30 1004.97 1004.75 1004.65 1004.66 1004.79 1005.00 1005.28 1005.60 1005.96 1006.34 1006.73 1007.15 1007.60 1008.08 1008.59 1009.12 1009.65 1010.16 1010.62 1011.02 1011.36 1011.66 1011.93 1012.22 1012.54 1012.94 1013.41 1013.94 1014.50 1015.07 1015.60 1016.06 1016.42 1016.68 1016.86 1016.98 1017.06 1017.13 1017.22 1017.34 1017.49 1017.67 1017.87
1007.97 1007.60 1007.15 1006.69 1006.23 1005.80 1005.43 1005.12 1004.89 1004.77 1004.74 1004.83 1005.02 1005.31 1005.67 1006.10 1006.57 1007.07 1007.59 1008.13 1008.67 1009.21 1009.74 1010.24 1010.71 1011.12 1011.47 1011.78 1012.05 1012.32 1012.61 1012.94 1013.33 1013.78 1014.28 1014.81 1015.32 1015.79 1016.20 1016.52 1016.76 1016.93 1017.06 1017.17 1017.29 1017.43 1017.61 1017.82 1018.05
1008.19 1007.88 1007.53 1007.14 1006.75 1006.34 1005.93 1005.54 1005.20 1004.92 1004.76 1004.73 1004.85 1005.11 1005.49 1005.97 1006.52 1007.09 1007.68 1008.25 1008.81 1009.36 1009.89 1010.40 1010.87 1011.31 1011.70 1012.04 1012.33 1012.58 1012.82 1013.08 1013.37 1013.71 1014.11 1014.56 1015.03 1015.50 1015.94 1016.32 1016.63 1016.88 1017.08 1017.24 1017.40 1017.57 1017.77 1018.00 1018.26
1008.27 1008.05 1007.81 1007.54 1007.23 1006.86 1006.44 1005.98 1005.53 1005.13 1004.84 1004.71 1004.77 1005.01 1005.42 1005.95 1006.57 1007.21 1007.84 1008.44 1009.01 1009.55 1010.07 1010.58 1011.08 1011.55 1011.99 1012.38 1012.69 1012.95 1013.15 1013.33 1013.51 1013.72 1014.01 1014.35 1014.77 1015.22 1015.68 1016.12 1016.51 1016.83 1017.10 1017.32 1017.52 1017.72 1017.94 1018.18 1018.46
1008.19 1008.09 1007.99 1007.86 1007.66 1007.36 1006.94 1006.43 1005.88 1005.37 1004.97 1004.75 1004.76 1004.99 1005.43 1006.02 1006.69 1007.38 1008.04 1008.65 1009.21 1009.73 1010.23 1010.74 1011.26 1011.78 1012.27 1012.71 1013.07 1013.34 1013.52 1013.63 1013.71 1013.81 1013.97 1014.22 1014.56 1014.98 1015.45 1015.93 1016.39 1016.79 1017.12 1017.39 1017.63 1017.84 1018.07 1018.33 1018.61
1008.02 1008.06 1008.13 1008.16 1008.09 1007.86 1007.45 1006.90 1006.27 1005.65 1005.14 1004.84 1004.79 1005.02 1005.47 1006.10 1006.82 1007.55 1008.23 1008.84 1009.37 1009.85 1010.33 1010.82 1011.35 1011.91 1012.46 1012.96 1013.37 1013.67 1013.84 1013.92 1013.92 1013.93 1013.99 1014.15 1014.43 1014.82 1015.29 1015.80 1016.30 1016.75 1017.13 1017.44 1017.69 1017.92 1018.16 1018.41 1018.70
1007.83 1008.03 1008.28 1008.48 1008.54 1008.39 1008.00 1007.41 1006.69 1005.96 1005.34 1004.94 1004.84 1005.03 1005.49 1006.15 1006.90 1007.65 1008.34 1008.94 1009.44 1009.89 1010.32 1010.79 1011.32 1011.90 1012.49 1013.05 1013.52 1013.86 1014.06 1014.13 1014.10 1014.06 1014.06 1014.15 1014.38 1014.73 1015.19 1015.71 1016.23 1016.71 1017.12 1017.45 1017.71 1017.94 1018.16 1018.42 1018.71
1007.70 1008.07 1008.51 1008.88 1009.06 1008.98 1008.60 1007.95 1007.13 1006.28 1005.53 1005.03 1004.84 1004.99 1005.44 1006.10 1006.87 1007.64 1008.33 1008.92 1009.39 1009.80 1010.20 1010.64 1011.15 1011.73 1012.35 1012.96 1013.48 1013.88 1014.12 1014.22 1014.20 1014.15 1014.12 1014.19 1014.38 1014.71 1015.15 1015.67 1016.19 1016.67 1017.08 1017.40 1017.65 1017.87 1018.09 1018.34 1018.64
1007.65 1008.21 1008.82 1009.34 1009.63 1009.59 1009.20 1008.48 1007.56 1006.57 1005.70 1005.07 1004.78 1004.86 1005.27 1005.92 1006.70 1007.48 1008.19 1008.77 1009.23 1009.61 1009.97 1010.37 1010.86 1011.43 1012.06 1012.69 1013.26 1013.71 1014.02 1014.16 1014.19 1014.17 1014.16 1014.22 1014.41 1014.72 1015.14 1015.64 1016.14 1016.60 1016.99 1017.30 1017.53 1017.72 1017.92 1018.17 1018.47
1007.68 1008.41 1009.17 1009.81 1010.18 1010.17 1009.75 1008.96 1007.93 1006.81 1005.80 1005.04 1004.65 1004.65 1005.01 1005.64 1006.41 1007.21 1007.92 1008.52 1008.98 1009.35 1009.68 1010.05 1010.51 1011.05 1011.67 1012.31 1012.91 1013.40 1013.76 1013.98 1014.07 1014.10 1014.14 1014.23 1014.42 1014.72 1015.13 1015.59 1016.06 1016.49 1016.84 1017.12 1017.33 1017.50 1017.69 1017.92 1018.22
1007.74 1008.61 1009.49 1010.22 1010.63 1010.63 1010.17 1009.32 1008.19 1006.96 1005.83 1004.97 1004.47 1004.39 1004.69 1005.28 1006.05 1006.85 1007.59 1008.21 1008.69 1009.06 1009.39 1009.74 1010.16 1010.66 1011.25 1011.87 1012.47 1013.00 1013.41 1013.68 1013.85 1013.95 1014.04 1014.17 1014.38 1014.68 1015.06 1015.49 1015.92 1016.31 1016.63 1016.87 1017.06 1017.22 1017.40 1017.62 1017.92
1007.76 1008.72 1009.68 1010.45 1010.88 1010.86 1010.38 1009.49 1008.30 1007.01 1005.80 1004.86 1004.28 1004.13 1004.38 1004.94 1005.69 1006.50 1007.26 1007.90 1008.41 1008.80 1009.14 1009.47 1009.85 1010.32 1010.86 1011.45 1012.03 1012.55 1012.99 1013.31 1013.54 1013.71 1013.86 1014.03 1014.26 1014.56 1014.92 1015.31 1015.70 1016.05 1016.34 1016.57 1016.75 1016.91 1017.09 1017.32 1017.61
1007.69 1008.69 1009.66 1010.43 1010.84 1010.82 1010.33 1009.44 1008.25 1006.96 1005.74 1004.77 1004.16 1003.96 1004.16 1004.68 1005.41 1006.21 1006.98 1007.65 1008.19 1008.61 1008.95 1009.28 1009.63 1010.05 1010.54 1011.07 1011.60 1012.11 1012.55 1012.90 1013.18 1013.39 1013.59 1013.80 1014.05 1014.35 1014.69 1015.05 1015.41 1015.73 1016.01 1016.24 1016.44 1016.62 1016.82 1017.07 1017.37
1007.51 1008.48 1009.40 1010.12 1010.51 1010.48 1010.02 1009.17 1008.05 1006.82 1005.67 1004.74 1004.14 1003.93 1004.10 1004.58 1005.26 1006.04 1006.80 1007.48 1008.04 1008.48 1008.84 1009.16 1009.49 1009.86 1010.29 1010.75 1011.23 1011.70 1012.12 1012.47 1012.77 1013.02 1013.26 1013.50 1013.76 1014.06 1014.39 1014.73 1015.06 1015.38 1015.67 1015.92 1016.16 1016.40 1016.65 1016.94 1017.26
1007.24 1008.11 1008.92 1009.55 1009.89 1009.86 1009.45 1008.71 1007.72 1006.65 1005.62 1004.80 1004.27 1004.08 1004.23 1004.66 1005.29 1006.01 1006.74 1007.39 1007.95 1008.39 1008.76 1009.07 1009.38 1009.72 1010.09 1010.49 1010.91 1011.32 1011.70 1012.04 1012.34 1012.62 1012.87 1013.13 1013.41 1013.71 1014.04 1014.37 1014.71 1015.04 1015.36 1015.67 1015.98 1016.29 1016.63 1016.98 1017.36
1006.91 1007.63 1008.29 1008.80 1009.07 1009.05 1008.71 1008.11 1007.31 1006.44 1005.61 1004.94 1004.52 1004.37 1004.52 1004.90 1005.45 1006.10 1006.75 1007.35 1007.88 1008.31 1008.67 1008.99 1009.28 1009.58 1009.91 1010.25 1010.61 1010.97 1011.31 1011.63 1011.93 1012.21 1012.48 1012.76 1013.06 1013.37 1013.70 1014.04 1014.40 1014.76 1015.14 1015.52 1015.92 1016.34 1016.77 1017.22 1017.66
Thickness
5843 5847 5848 5841 5815 5801 5808 5824 5834 5831 5834 5844 5845 5837 5823 5813 5800 5787 5819 5828 5821 5810 5802 5796 5792 5790 5788 5786 5783 5782 5780 5778 5776 5774 5772 5771 5770 5769 5767 5766 5765 5764 5763 5762 5761 5760 5758 5757 5756
5849 5856 5847 5828 5800 5792 5808 5831 5831 5834 5842 5849 5846 5837 5825 5818 5825 5821 5823 5825 5820 5810 5802 5796 5791 5788 5786 5784 5782 5780 5778 5776 5774 5772 5771 5770 5768 5767 5766 5765 5763 5763 5762 5761 5760 5758 5757 5755 5754
5851 5856 5835 5819 5804 5808 5818 5837 5839 5846 5852 5846 5838 5836 5825 5818 5825 5824 5826 5826 5819 5809 5802 5793 5789 5787 5784 5782 5780 5778 5776 5774 5772 5770 5769 5768 5767 5765 5764 5763 5762 5761 5760 5759 5758 5757 5755 5754 5753
5852 5846 5830 5816 5816 5839 5843 5847 5850 5844 5847 5848 5837 5822 5825 5834 5834 5831 5830 5827 5817 5807 5799 5791 5788 5785 5782 5779 5778 5776 5774 5772 5770 5769 5767 5766 5765 5764 5763 5761 5760 5759 5758 5758 5757 5755 5754 5752 5751
5854 5832 5808 5806 5828 5851 5859 5861 5856 5842 5840 5842 5836 5817 5814 5833 5840 5835 5830 5825 5816 5808 5798 5789 5785 5782 5780 5778 5776 5774 5772 5770 5768 5767 5766 5764 5764 5762 5761 5760 5758 5757 5756 5756 5755 5753 5752 5751 5750
5838 5826 5803 5803 5834 5855 5864 5867 5857 5841 5838 5843 5836 5820 5815 5834 5833 5830 5829 5821 5817 5808 5797 5787 5782 5779 5777 5776 5774 5772 5770 5768 5767 5765 5764 5763 5762 5761 5759 5758 5757 5755 5754 5754 5753 5752 5750 5749 5749
5834 5824 5813 5822 5837 5845 5861 5871 5858 5845 5838 5843 5845 5819 5814 5828 5831 5831 5827 5820 5814 5807 5796 5786 5781 5777 5775 5773 5771 5770 5768 5766 5765 5764 5763 5761 5760 5759 5757 5756 5755 5753 5753 5752 5751 5751 5749 5748 5748
5854 5835 5821 5833 5840 5843 5866 5869 5865 5854 5845 5857 5851 5822 5813 5824 5832 5830 5824 5817 5810 5803 5795 5787 5782 5777 5773 5770 5768 5767 5766 5765 5763 5762 5761 5760 5759 5758 5756 5755 5753 5752 5751 5750 5750 5749 5748 5747 5747
5860 5829 5818 5836 5844 5850 5867 5863 5865 5869 5854 5848 5847 5840 5835 5835 5832 5823 5815 5808 5803 5798 5793 5788 5783 5777 5774 5770 5767 5764 5763 5762 5762 5761 5760 5759 5758 5757 5755 5754 5752 5751 5750 5749 5749 5748 5747 5746 5745
5852 5824 5832 5857 5863 5860 5865 5863 5864 5855 5837 5831 5832 5837 5837 5832 5825 5815 5807 5799 5797 5793 5791 5789 5784 5778 5775 5772 5766 5764 5763 5761 5761 5761 5760 5759 5759 5758 5757 5753 5751 5750 5749 5748 5748 5747 5746 5745 5745
5854 5840 5853 5866 5871 5867 5862 5863 5867 5849 5829 5831 5828 5829 5830 5825 5819 5813 5807 5803 5798 5793 5790 5786 5782 5778 5775 5771 5766 5765 5765 5762 5762 5762 5761 5760 5759 5758 5755 5753 5751 5750 5749 5749 5747 5746 5747 5746 5746
5852 5856 5863 5865 5871 5865 5861 5863 5860 5853 5845 5852 5846 5839 5830 5822 5816 5811 5806 5802 5797 5790 5787 5784 5780 5775 5772 5770 5767 5765 5764 5762 5763 5762 5761 5760 5759 5758 5757 5755 5753 5751 5751 5750 5749 5748 5748 5747 5747
5851 5854 5864 5869 5870 5868 5864 5860 5858 5855 5861 5859 5850 5840 5830 5823 5817 5814 5809 5803 5796 5789 5785 5782 5778 5772 5769 5767 5766 5766 5765 5764 5764 5762 5761 5761 5760 5759 5757 5756 5754 5754 5752 5751 5750 5749 5749 5748 5747
5854 5857 5860 5864 5866 5867 5859 5858 5855 5853 5860 5853 5844 5835 5830 5823 5818 5812 5805 5798 5794 5788 5783 5779 5774 5770 5766 5764 5763 5764 5765 5764 5764 5762 5761 5761 5760 5759 5757 5756 5755 5754 5753 5752 5751 5750 5749 5748 5747
5857 5845 5847 5858 5863 5866 5859 5841 5843 5857 5857 5847 5840 5834 5829 5824 5818 5811 5805 5799 5794 5787 5782 5777 5772 5767 5763 5762 5761 5763 5764 5764 5764 5762 5761 5760 5759 5758 5757 5756 5754 5754 5753 5753 5752 5750 5750 5748 5747
5847 5835 5828 5851 5863 5865 5848 5822 5844 5859 5852 5841 5836 5830 5825 5821 5818 5813 5807 5800 5794 5787 5780 5775 5772 5765 5761 5759 5759 5761 5762 5763 5763 5761 5760 5759 5758 5757 5756 5755 5755 5755 5754 5753 5752 5751 5749 5748 5747
5832 5825 5831 5848 5865 5860 5847 5832 5847 5859 5851 5840 5834 5829 5822 5817 5815 5812 5807 5800 5794 5787 5780 5773 5771 5765 5761 5759 5758 5759 5760 5761 5761 5760 5759 5757 5757 5756 5755 5755 5755 5754 5754 5754 5753 5750 5750 5747 5746
5824 5834 5838 5844 5860 5854 5842 5839 5849 5856 5851 5841 5834 5828 5821 5815 5812 5811 5805 5799 5793 5786 5780 5773 5768 5765 5761 5758 5755 5755 5756 5758 5759 5758 5757 5756 5756 5756 5755 5755 5755 5755 5754 5753 5752 5749 5749 5748 5746
5837 5833 5832 5844 5861 5848 5838 5838 5845 5854 5849 5838 5830 5825 5819 5816 5815 5810 5803 5797 5791 5784 5778 5773 5767 5764 5760 5755 5752 5750 5750 5753 5756 5757 5757 5756 5756 5755 5754 5755 5755 5755 5753 5752 5751 5749 5747 5746 5747
5832 5824 5828 5843 5857 5844 5833 5834 5846 5850 5846 5842 5834 5827 5822 5816 5811 5805 5801 5796 5789 5783 5778 5773 5767 5763 5759 5756 5753 5751 5750 5752 5754 5756 5756 5755 5755 5754 5754 5753 5754 5754 5752 5751 5750 5748 5745 5745 5746
5825 5822 5826 5830 5842 5845 5831 5824 5836 5844 5846 5845 5840 5834 5828 5819 5809 5802 5798 5794 5789 5783 5778 5774 5768 5763 5759 5756 5752 5750 5748 5749 5750 5752 5753 5754 5754 5754 5754 5753 5753 5753 5751 5749 5748 5747 5744 5741 5744
5815 5835 5834 5829 5820 5817 5826 5803 5823 5834 5828 5833 5834 5831 5826 5820 5809 5803 5797 5793 5789 5785 5781 5775 5769 5764 5759 5756 5752 5748 5746 5744 5748 5750 5752 5752 5752 5753 5753 5752 5751 5751 5751 5748 5748 5748 5746 5743 5739
5826 5840 5834 5827 5817 5810 5819 5808 5818 5832 5818 5824 5831 5831 5827 5821 5813 5805 5800 5794 5791 5788 5782 5777 5770 5764 5760 5757 5754 5750 5749 5748 5749 5751 5750 5750 5751 5751 5752 5751 5750 5749 5749 5749 5748 5747 5746 5744 5741
5835 5829 5824 5821 5812 5791 5809 5806 5805 5824 5822 5826 5832 5832 5828 5822 5816 5808 5803 5798 5792 5789 5784 5778 5770 5764 5761 5757 5755 5752 5750 5749 5748 5748 5747 5748 5749 5750 5751 5750 5749 5748 5748 5748 5747 5746 5744 5743 5742
5825 5803 5784 5782 5783 5786 5815 5808 5812 5834 5842 5838 5833 5830 5828 5823 5816 5808 5801 5796 5791 5787 5783 5777 5770 5764 5761 5758 5755 5753 5752 5750 5748 5748 5747 5747 5748 5748 5749 5751 5748 5747 5747 5747 5746 5744 5743 5742 5740
5816 5807 5780 5770 5771 5779 5798 5799 5819 5842 5847 5846 5840 5834 5827 5821 5815 5807 5802 5796 5791 5787 5782 5777 5770 5765 5762 5759 5756 5755 5754 5752 5751 5750 5749 5749 5749 5750 5750 5749 5747 5746 5746 5745 5743 5743 5742 5741 5740
5810 5809 5819 5801 5793 5785 5795 5812 5824 5835 5835 5836 5833 5828 5822 5818 5813 5806 5802 5796 5791 5787 5782 5778 5771 5766 5763 5760 5758 5756 5755 5754 5753 5752 5751 5750 5750 5750 5749 5748 5746 5745 5744 5743 5741 5740 5739 5738 5737
5823 5821 5811 5794 5776 5770 5786 5795 5799 5807 5815 5821 5824 5821 5818 5816 5812 5807 5801 5795 5791 5789 5783 5779 5773 5767 5764 5762 5759 5757 5755 5754 5753 5752 5750 5750 5750 5749 5747 5746 5744 5743 5741 5740 5738 5737 5736 5734 5734
5810 5806 5804 5802 5799 5778 5768 5780 5816 5812 5815 5815 5819 5823 5820 5815 5812 5807 5802 5797 5793 5789 5783 5778 5772 5768 5764 5762 5759 5756 5754 5754 5752 5751 5750 5749 5748 5747 5745 5743 5741 5739 5737 5736 5734 5733 5732 5730 5729
5821 5811 5804 5782 5782 5791 5783 5789 5828 5825 5827 5823 5823 5824 5822 5817 5813 5807 5801 5795 5790 5786 5782 5777 5772 5768 5764 5762 5758 5755 5753 5752 5750 5748 5747 5747 5745 5743 5742 5740 5737 5735 5733 5731 5730 5728 5727 5725 5722